User: anonymous   Login
Location: Unspecified
(0.0000°N, 0.0000°E)
Time: 05:59:54
(UTC+00:00)
Language:

UHF F/O F4 - Orbit

View from above orbital plane
View from above orbital plane
View from above satellite
View from above satellite

Ground track
Ground track

The orbit data is extracted from the following two-line orbital elements,

1 23467U 95003A   15052.95114038 0.00000000  00000-0  00000-0 0    06
2 23467   8.7210  34.2097 0002501 261.9140  98.1306  1.00270000    05
Epoch (UTC): 21 February 2015 22:49:38
Eccentricity: 0.0002501
inclination: 8.7210°
perigee height: 35776 km
apogee height: 35797 km
right ascension of ascending node: 34.2097°
argument of perigee: 261.9140°
revolutions per day: 1.00270000
mean anomaly at epoch: 98.1306°
orbit number at epoch: 0

The dashed part of the orbit path shows where the satellite is in the earth's shadow,  

DLR